This demonstration page uses our WeatherBlox Daily Observations layout. Learn more.

Left ArrowRight Arrow

Hourly Observations for January 5, 2022

Temp ( °F °C ) Dew Point ( °F °C ) Humidity (%) Winds ( mph kmh ) Pressure ( in mb ) Visibility ( mi km ) Precip ( " mm )
12:20 am 00:20 Cloudy 43 6.1 32 0 65 65 Calm 30.18 1022 10 16 0.00 0.00
12:53 am 00:53 Cloudy 44 6.7 33 0.6 65 65 Calm 30.16 1021 10 16 0.00 0.00
1:53 am 01:53 Cloudy 44 6.7 34 1.1 68 68 Calm 30.15 1021 10 16 0.00 0.00
2:53 am 02:53 Cloudy 44 6.7 35 1.7 71 71 E 3 6 30.12 1020 10 16 0.00 0.00
3:53 am 03:53 Cloudy 44 6.7 36 2.2 73 73 Calm 30.12 1020 10 16 0.00 0.00
4:53 am 04:53 Cloudy 44 6.7 37 2.8 76 76 Calm 30.11 1020 10 16 0.00 0.00
5:53 am 05:53 Cloudy 44 6.7 37 2.8 76 76 Calm 30.11 1020 10 16 0.00 0.00
6:53 am 06:53 Cloudy 44 6.7 37 2.8 76 76 Calm 30.09 1019 10 16 0.00 0.00
7:53 am 07:53 Cloudy 42 5.6 36 2.2 79 79 Calm 30.08 1019 10 16 0.00 0.00
8:53 am 08:53 Mostly Cloudy 44 6.7 39 3.9 83 83 SSW 3 6 30.09 1019 10 16 0.00 0.00
9:16 am 09:16 Mostly Cloudy 45 7.2 39 3.9 80 80 SSW 5 7 30.10 1019 10 16 0.00 0.00
9:53 am 09:53 Mostly Sunny 46 7.8 40 4.4 79 79 SSW 8 13 30.09 1019 10 16 0.00 0.00
10:53 am 10:53 Mostly Cloudy 49 9.4 38 3.3 66 66 SW 5 7 30.09 1019 10 16 0.00 0.00
11:05 am 11:05 Cloudy 50 10 39 3.9 66 66 W 8 13 30.09 1019 10 16 0.00 0.00
11:53 am 11:53 Mostly Cloudy 53 11.7 40 4.4 61 61 VRB 5 7 30.05 1018 10 16 0.00 0.00
12:53 pm 12:53 Mostly Cloudy 55 12.8 41 5 59 59 NW 8 13 30.01 1016 10 16 0.00 0.00
1:53 pm 13:53 Mostly Cloudy 56 13.3 41 5 57 57 WSW 8 13 29.98 1015 10 16 0.00 0.00
2:53 pm 14:53 Mostly Cloudy 55 12.8 41 5 59 59 W 8 13 29.98 1015 10 16 0.00 0.00
3:53 pm 15:53 Cloudy 58 14.4 41 5 53 53 W 7 11 29.97 1015 10 16 0.00 0.00
4:53 pm 16:53 Mostly Cloudy 56 13.3 42 5.6 60 60 WNW 8 13 29.98 1015 10 16 0.00 0.00
5:53 pm 17:53 Clear 52 11.1 42 5.6 69 69 NNW 3 6 29.98 1015 10 16 0.00 0.00
6:53 pm 18:53 Clear 49 9.4 42 5.6 77 77 Calm 29.98 1015 10 16 0.00 0.00
7:53 pm 19:53 Clear 45 7.2 42 5.6 90 90 Calm 30.00 1016 10 16 0.00 0.00
8:53 pm 20:53 Clear 43 6.1 41 5 93 93 Calm 30.00 1016 9 14 0.00 0.00
9:53 pm 21:53 Clear with Mist and Fog 41 5 39 3.9 93 93 Calm 29.99 1016 5 8 0.00 0.00
10:53 pm 22:53 Clear with Mist and Fog 40 4.4 38 3.3 93 93 Calm 29.99 1016 4 6 0.00 0.00
11:53 pm 23:53 Clear 40 4.4 38 3.3 93 93 Calm 29.99 1016 8 13 0.00 0.00

Powered by AerisWeather